Date,TemperatureHighF,TemperatureAvgF,TemperatureLowF,DewpointHighF,DewpointAvgF,DewpointLowF,HumidityHigh,HumidityAvg,HumidityLow,PressureMaxIn,PressureMinIn,WindSpeedMaxMPH,WindSpeedAvgMPH,GustSpeedMaxMPH,PrecipitationSumIn
2013-1-1,42.0,39.4,35.0,29.0,27.1,25.0,72,61,53,0.00,40.00,11,5,21,0.00
2013-1-2,38.0,31.5,25.0,25.0,16.2,9.0,67,54,36,0.00,40.00,8,6,14,0.00
2013-1-3,41.0,29.2,18.0,18.0,15.4,13.0,84,58,37,0.00,40.00,10,4,19,0.00
2013-1-4,41.0,35.4,33.0,21.0,19.3,18.0,56,51,43,0.00,40.00,15,10,29,0.00
2013-1-5,45.0,37.0,32.0,25.0,20.3,17.0,71,51,35,0.00,40.00,15,6,26,0.00
2013-1-6,45.0,38.5,29.0,28.0,25.9,23.0,78,61,46,0.00,40.00,8,4,14,0.00
2013-1-7,45.0,37.5,25.0,29.0,24.2,21.0,86,59,45,0.00,40.00,12,5,22,0.00
2013-1-8,51.0,32.5,21.0,33.0,25.7,19.0,96,78,49,0.00,40.00,4,2,6,0.00
2013-1-9,52.0,35.7,24.0,45.0,29.7,22.0,97,81,43,0.00,40.00,13,3,21,0.00
2013-1-10,52.0,45.7,39.0,29.0,27.6,25.0,64,49,40,0.00,40.00,13,4,21,0.00
2013-1-11,47.0,40.7,35.0,43.0,34.4,26.0,100,80,53,0.00,40.00,9,4,13,0.09
2013-1-12,60.0,45.9,40.0,49.0,43.8,40.0,100,93,68,0.00,40.00,4,2,7,0.01
2013-1-13,58.0,48.8,42.0,54.0,47.6,42.0,100,96,80,0.00,40.00,4,3,8,0.00
2013-1-14,54.0,48.8,39.0,54.0,41.9,31.0,100,79,55,0.00,40.00,9,5,17,0.15
2013-1-15,40.0,37.4,34.0,38.0,34.2,30.0,100,89,75,0.00,40.00,6,4,10,0.58
2013-1-16,39.0,35.3,33.0,39.0,35.3,33.0,100,100,100,0.00,40.00,8,3,11,1.12
2013-1-17,43.0,39.4,35.0,39.0,27.6,21.0,100,63,45,0.00,40.00,7,4,19,0.02
2013-1-18,38.0,32.5,26.0,27.0,14.2,6.0,69,47,27,0.00,40.00,12,6,24,0.00
2013-1-19,58.0,41.2,26.0,27.0,21.7,14.0,69,49,22,0.00,40.00,14,8,23,0.00
2013-1-20,54.0,43.5,31.0,29.0,18.0,8.0,63,38,19,0.00,40.00,16,8,30,0.00
2013-1-21,44.0,31.4,26.0,16.0,13.6,8.0,62,48,32,0.00,40.00,14,6,28,0.00
2013-1-22,26.0,17.7,13.0,9.0,-4.9,-9.0,48,36,26,0.00,40.00,13,9,30,0.00
2013-1-23,23.0,17.5,11.0,7.0,-2.4,-5.0,56,41,28,0.00,40.00,9,5,20,0.00
2013-1-24,27.0,20.1,15.0,15.0,5.8,-6.0,93,58,32,0.00,40.00,12,6,27,0.04
2013-1-25,22.0,16.7,12.0,18.0,6.8,-6.0,96,67,35,0.00,40.00,9,3,19,0.01
2013-1-26,38.0,24.9,16.0,27.0,20.5,15.0,97,84,63,0.00,40.00,5,2,12,0.07
2013-1-27,36.0,27.8,20.0,19.0,15.0,11.0,74,59,43,0.00,40.00,5,3,11,0.04
2013-1-28,42.0,34.6,28.0,41.0,32.4,19.0,100,92,68,0.00,40.00,7,3,11,0.18
2013-1-29,69.0,54.6,40.0,54.0,49.1,40.0,100,84,55,0.00,40.00,7,4,12,0.03
2013-1-30,70.0,52.6,41.0,61.0,51.6,41.0,100,97,73,0.00,40.00,19,5,31,1.31
2013-1-31,55.0,35.7,28.0,55.0,18.8,8.0,100,51,40,0.00,40.00,19,12,41,1.29
2013-2-1,30.0,24.3,17.0,26.0,7.8,0.0,98,50,36,0.00,40.00,16,10,27,0.03
2013-2-2,28.0,20.6,12.0,20.0,8.4,1.0,80,59,45,0.00,40.00,9,5,16,0.00
2013-2-3,34.0,27.9,22.0,28.0,23.0,12.0,100,83,53,0.00,40.00,12,4,22,0.00
2013-2-4,37.0,29.4,24.0,30.0,14.6,8.0,100,55,39,0.00,40.00,14,6,25,0.00
2013-2-5,36.0,32.3,30.0,34.0,31.4,30.0,100,97,86,0.00,40.00,4,2,9,0.02
2013-2-6,39.0,34.5,28.0,34.0,26.4,19.0,100,73,55,0.00,40.00,11,4,17,0.01
2013-2-7,39.0,30.7,24.0,25.0,21.7,18.0,90,71,51,0.00,40.00,7,4,14,0.01
2013-2-8,40.0,35.4,32.0,38.0,29.6,20.0,100,80,58,0.00,40.00,15,6,33,0.02
2013-2-9,42.0,32.8,24.0,20.0,15.8,11.0,65,51,30,0.00,40.00,14,9,32,0.01
2013-2-10,44.0,32.9,16.0,20.0,15.7,12.0,85,53,31,0.00,40.00,10,5,16,0.00
2013-2-11,65.0,48.6,34.0,49.0,34.9,19.0,100,66,23,0.00,40.00,15,7,30,0.15
2013-2-12,56.0,47.5,38.0,29.0,23.9,19.0,56,40,26,0.00,40.00,17,9,31,0.01
2013-2-13,42.0,34.9,28.0,34.0,27.2,24.0,100,75,52,0.00,40.00,6,3,11,0.03
2013-2-14,49.0,39.0,32.0,34.0,27.6,24.0,100,66,41,0.00,40.00,7,4,15,0.10
2013-2-15,54.0,39.1,28.0,37.0,31.0,25.0,100,75,42,0.00,40.00,8,4,17,0.12
2013-2-16,37.0,33.9,28.0,33.0,23.3,14.0,100,67,45,0.00,40.00,9,6,18,0.10
2013-2-17,30.0,25.8,22.0,14.0,8.5,4.0,62,48,35,0.00,40.00,15,9,27,0.00
2013-2-18,44.0,28.4,17.0,16.0,7.2,2.0,59,41,25,0.00,40.00,10,5,20,0.00
2013-2-19,53.0,37.0,24.0,40.0,25.7,15.0,97,65,39,0.00,40.00,16,8,35,0.04
2013-2-20,36.0,29.2,24.0,17.0,9.8,6.0,49,44,38,0.00,40.00,15,11,35,0.01
2013-2-21,37.0,28.2,23.0,15.0,11.1,7.0,66,49,38,0.00,40.00,12,8,25,0.00
2013-2-22,31.0,28.6,25.0,29.0,22.2,14.0,95,77,58,0.00,40.00,7,4,12,0.00
2013-2-23,46.0,36.8,31.0,39.0,34.5,29.0,100,92,73,0.00,40.00,5,3,8,0.02
2013-2-24,49.0,39.6,31.0,39.0,28.4,15.0,100,68,37,0.00,40.00,14,7,30,0.02
2013-2-25,46.0,35.4,25.0,22.0,18.8,17.0,73,52,33,0.00,40.00,7,3,12,0.00
2013-2-26,40.0,32.4,25.0,40.0,28.6,19.0,100,86,66,0.00,40.00,10,4,20,0.91
2013-2-27,53.0,43.3,36.0,41.0,35.0,30.0,100,76,45,0.00,40.00,14,7,24,0.65
2013-2-28,43.0,40.6,37.0,35.0,27.1,24.0,75,58,49,0.00,40.00,12,7,22,0.01
2013-3-1,42.0,38.2,33.0,28.0,25.7,20.0,66,61,50,0.00,40.00,11,8,22,0.00
2013-3-2,35.0,31.7,29.0,23.0,19.9,17.0,67,61,54,0.00,40.00,9,7,18,0.00
2013-3-3,41.0,32.5,28.0,19.0,16.1,13.0,65,51,36,0.00,40.00,13,9,25,0.00
2013-3-4,44.0,33.4,26.0,16.0,13.8,10.0,56,45,30,0.00,40.00,14,8,26,0.00
2013-3-5,47.0,38.6,29.0,20.0,16.4,9.0,63,42,22,0.00,40.00,8,4,19,0.00
2013-3-6,41.0,35.9,32.0,35.0,31.3,18.0,100,85,42,0.00,40.00,15,8,29,0.43
2013-3-7,46.0,40.9,37.0,29.0,26.6,23.0,70,57,43,0.00,40.00,13,8,24,0.02
2013-3-8,48.0,40.2,36.0,28.0,24.6,22.0,68,54,43,0.00,40.00,16,11,29,0.00
2013-3-9,60.0,44.2,31.0,25.0,21.9,15.0,66,45,18,0.00,40.00,7,4,16,0.00
2013-3-10,63.0,47.3,27.0,30.0,24.8,22.0,88,47,23,0.00,40.00,12,6,20,0.00
2013-3-11,58.0,49.5,39.0,49.0,35.6,21.0,83,61,31,0.00,40.00,13,6,21,0.00
2013-3-12,58.0,51.0,41.0,54.0,41.9,27.0,100,72,51,0.00,40.00,15,9,28,0.56
2013-3-13,47.0,39.3,31.0,29.0,22.2,16.0,72,51,31,0.00,40.00,14,8,29,0.04
2013-3-14,44.0,35.8,30.0,18.0,14.3,12.0,54,42,30,0.00,40.00,16,10,33,0.00
2013-3-15,58.0,44.1,32.0,32.0,22.2,16.0,54,42,30,0.00,40.00,14,7,23,0.00
2013-3-16,50.0,43.0,36.0,36.0,33.8,31.0,97,71,47,0.00,40.00,10,5,17,0.00
2013-3-17,39.0,36.8,35.0,35.0,26.9,21.0,95,69,48,0.00,40.00,9,4,15,0.00
2013-3-18,36.0,32.7,30.0,33.0,27.6,19.0,100,84,52,0.00,40.00,8,4,15,0.04
2013-3-19,56.0,42.0,32.0,42.0,24.5,6.0,100,62,15,0.00,40.00,19,8,39,0.30
2013-3-20,51.0,41.7,34.0,29.0,13.4,9.0,78,33,20,0.00,40.00,17,10,38,0.02
2013-3-21,36.0,31.2,27.0,29.0,11.6,4.0,78,45,31,0.00,40.00,13,8,24,0.00
2013-3-22,45.0,34.8,27.0,17.0,14.0,8.0,53,43,31,0.00,40.00,13,8,24,0.00
2013-3-23,53.0,39.5,24.0,23.0,19.4,16.0,73,47,28,0.00,40.00,9,6,20,0.00
2013-3-24,41.0,33.8,27.0,33.0,22.9,19.0,100,67,43,0.00,40.00,7,3,11,0.00
2013-3-25,46.0,34.9,32.0,38.0,33.7,32.0,100,96,73,0.00,40.00,5,2,9,0.66
2013-3-26,49.0,39.6,31.0,35.0,30.4,25.0,100,74,43,0.00,40.00,10,6,21,0.21
2013-3-27,48.0,40.8,35.0,29.0,26.2,23.0,68,57,37,0.00,40.00,14,7,26,0.05
2013-3-28,47.0,43.8,39.0,32.0,30.2,29.0,72,59,53,0.00,40.00,10,7,20,0.00
2013-3-29,55.0,45.2,36.0,33.0,28.3,22.0,79,54,31,0.00,40.00,9,4,17,0.00
2013-3-30,60.0,44.8,28.0,31.0,23.5,14.0,90,50,19,0.00,40.00,7,3,17,0.00
2013-3-31,48.0,42.4,36.0,48.0,37.4,-99.9,100,88,53,0.00,40.00,4,3,7,0.21
2013-4-1,57.0,46.6,40.0,46.0,34.2,13.0,100,65,33,0.00,40.00,15,7,26,0.04
2013-4-2,47.0,39.5,32.0,17.0,13.1,9.0,46,34,22,0.00,40.00,12,6,24,0.03
2013-4-3,50.0,38.4,28.0,18.0,13.6,8.0,54,38,21,0.00,40.00,13,7,26,0.00
2013-4-4,49.0,36.0,20.0,16.0,11.6,8.0,73,39,21,0.00,40.00,10,5,17,0.00
2013-4-5,66.0,50.2,34.0,36.0,26.2,15.0,100,47,21,0.00,40.00,13,7,25,0.00
2013-4-6,57.0,44.8,29.0,23.0,19.2,15.0,66,38,21,0.00,40.00,14,6,22,0.00
2013-4-7,71.0,55.6,41.0,42.0,33.3,22.0,61,44,31,0.00,40.00,14,9,23,0.00
2013-4-8,80.0,66.3,52.0,47.0,44.2,40.0,76,48,26,0.00,40.00,10,5,17,0.00
2013-4-9,85.0,73.2,62.0,55.0,49.9,44.0,58,45,31,0.00,40.00,11,6,20,0.00
2013-4-10,90.0,77.0,62.0,57.0,52.6,49.0,69,45,28,0.00,40.00,12,6,22,0.00
2013-4-11,84.0,71.3,56.0,59.0,55.4,50.0,94,61,35,0.00,40.00,13,5,24,0.00
2013-4-12,66.0,56.8,51.0,61.0,55.5,51.0,100,95,78,0.00,40.00,12,5,26,0.67
2013-4-13,69.0,57.2,47.0,51.0,33.4,24.0,92,43,23,0.00,40.00,12,8,27,0.03
2013-4-14,69.0,54.9,39.0,37.0,33.6,27.0,79,47,27,0.00,40.00,7,4,16,0.00
2013-4-15,64.0,59.0,54.0,51.0,45.5,36.0,81,61,46,0.00,40.00,11,6,17,0.00
2013-4-16,76.0,64.6,56.0,60.0,55.6,50.0,94,74,54,0.00,40.00,11,8,20,0.00
2013-4-17,69.0,63.8,57.0,66.0,59.0,55.0,100,85,66,0.00,40.00,9,4,17,0.11
2013-4-18,75.0,65.2,60.0,64.0,58.6,54.0,100,81,57,0.00,40.00,13,6,24,0.00
2013-4-19,75.0,65.6,53.0,64.0,57.2,36.0,100,75,53,0.00,40.00,16,10,27,0.65
2013-4-20,59.0,51.4,43.0,36.0,27.4,22.0,53,40,27,0.00,40.00,14,10,31,0.15
2013-4-21,54.0,44.3,35.0,28.0,23.0,19.0,62,44,26,0.00,40.00,7,5,16,0.00
2013-4-22,58.0,45.6,33.0,34.0,31.6,28.0,98,62,36,0.00,40.00,8,4,16,0.00
2013-4-23,60.0,47.9,37.0,43.0,37.6,32.0,88,68,52,0.00,40.00,6,4,16,0.00
2013-4-24,77.0,57.1,39.0,62.0,48.7,39.0,100,78,42,0.00,40.00,16,6,26,0.18
2013-4-25,65.0,53.5,43.0,44.0,30.5,25.0,63,43,25,0.00,40.00,14,7,29,0.18
2013-4-26,65.0,53.3,42.0,37.0,33.6,28.0,74,49,30,0.00,40.00,6,4,13,0.00
2013-4-27,71.0,55.9,37.0,42.0,38.7,36.0,99,57,31,0.00,40.00,8,4,14,0.00
2013-4-28,60.0,51.4,42.0,53.0,43.0,-99.9,100,80,38,0.00,40.00,11,4,19,0.17
2013-4-29,60.0,55.3,52.0,60.0,54.5,49.0,100,97,84,0.00,40.00,7,4,11,0.11
2013-4-30,60.0,57.3,54.0,59.0,57.0,54.0,100,99,89,0.00,40.00,6,3,10,0.03
2013-5-1,71.0,60.1,52.0,56.0,43.0,31.0,100,62,23,0.00,40.00,7,4,14,0.01
2013-5-2,71.0,58.0,40.0,47.0,43.2,37.0,100,62,35,0.00,40.00,7,4,12,0.00
2013-5-3,69.0,55.1,42.0,50.0,44.1,39.0,100,71,37,0.00,40.00,9,4,15,0.00
2013-5-4,69.0,55.4,41.0,46.0,41.8,39.0,100,65,37,0.00,40.00,8,4,20,0.00
2013-5-5,65.0,51.6,42.0,46.0,40.8,38.0,100,70,37,0.00,40.00,7,4,14,0.00
2013-5-6,60.0,52.1,41.0,59.0,50.4,41.0,100,94,80,0.00,40.00,6,3,14,0.05
2013-5-7,62.0,59.6,57.0,62.0,59.6,57.0,100,100,100,0.00,40.00,8,5,12,0.97
2013-5-8,70.0,59.5,51.0,61.0,54.6,51.0,100,86,55,0.00,40.00,11,4,17,0.76
2013-5-9,76.0,59.7,50.0,61.0,54.5,50.0,100,86,50,0.00,40.00,8,4,21,0.06
2013-5-10,83.0,62.8,51.0,66.0,53.4,-99.9,100,83,39,0.00,40.00,9,4,22,0.39
2013-5-11,72.0,65.5,61.0,68.0,60.4,50.0,100,86,51,0.00,40.00,11,5,21,0.53
2013-5-12,63.0,56.9,48.0,51.0,33.6,-99.9,69,45,29,0.00,40.00,12,8,28,0.14
2013-5-13,58.0,49.4,41.0,32.0,26.3,21.0,64,42,25,0.00,40.00,13,6,26,0.00
2013-5-14,64.0,48.1,33.0,39.0,33.1,28.0,97,61,28,0.00,40.00,6,3,11,0.00
2013-5-15,90.0,65.4,48.0,66.0,50.1,39.0,88,60,31,0.00,40.00,10,4,21,0.00
2013-5-16,81.0,67.1,67.0,62.0,35.1,-99.9,79,55,38,0.00,40.00,10,6,20,0.01
2013-5-17,82.0,70.2,58.0,61.0,49.6,-99.9,100,63,40,0.00,40.00,8,4,15,0.01
2013-5-18,70.0,64.1,60.0,61.0,56.5,49.0,100,78,48,0.00,40.00,8,5,14,0.00
2013-5-19,71.0,63.3,58.0,67.0,62.0,58.0,100,96,81,0.00,40.00,7,3,13,0.00
2013-5-20,83.0,71.7,62.0,69.0,66.4,62.0,100,85,59,0.00,40.00,6,3,12,0.00
2013-5-21,89.0,75.9,62.0,72.0,67.8,62.0,100,79,49,0.00,40.00,8,4,15,0.00
2013-5-22,90.0,75.9,66.0,72.0,66.9,60.0,100,79,39,0.00,40.00,8,4,19,0.33
2013-5-23,78.0,68.8,64.0,72.0,66.4,63.0,100,93,65,0.00,40.00,6,4,14,0.42
2013-5-24,64.0,55.4,47.0,64.0,44.6,30.0,100,68,46,0.00,40.00,14,10,28,0.23
2013-5-25,66.0,54.0,42.0,38.0,32.6,28.0,66,46,30,0.00,40.00,13,9,26,0.00
2013-5-26,73.0,59.9,49.0,39.0,34.4,30.0,59,40,24,0.00,40.00,9,6,25,0.00
2013-5-27,67.0,56.8,42.0,55.0,44.2,39.0,100,67,36,0.00,40.00,6,3,11,0.00
2013-5-28,80.0,64.4,54.0,67.0,59.7,54.0,100,87,61,0.00,40.00,6,3,11,0.06
2013-5-29,91.0,74.7,59.0,68.0,63.4,59.0,100,73,38,0.00,40.00,9,4,18,0.01
2013-5-30,91.0,78.2,62.0,69.0,65.4,60.0,100,70,37,0.00,40.00,8,3,13,0.00
2013-5-31,90.0,78.3,64.0,69.0,63.4,56.0,100,65,32,0.00,40.00,9,5,16,0.00
2013-6-1,90.0,79.7,65.0,67.0,65.2,63.0,100,64,44,0.00,40.00,10,5,17,0.00
2013-6-2,81.0,74.5,70.0,74.0,65.3,-99.9,100,77,62,0.00,40.00,8,6,37,0.33
2013-6-3,79.0,71.6,65.0,71.0,63.2,52.0,100,77,54,0.00,40.00,9,5,16,0.21
2013-6-4,77.0,65.7,54.0,54.0,46.6,41.0,80,52,32,0.00,40.00,7,5,15,0.02
2013-6-5,78.0,66.3,52.0,57.0,54.7,52.0,100,70,43,0.00,40.00,9,4,15,0.00
2013-6-6,69.0,64.0,62.0,65.0,57.2,48.0,100,80,58,0.00,40.00,7,4,15,0.63
2013-6-7,68.0,65.1,63.0,68.0,65.1,63.0,100,100,100,0.00,40.00,6,4,13,0.38
2013-6-8,81.0,70.3,63.0,66.0,60.1,56.0,100,72,48,0.00,40.00,6,4,12,0.01
2013-6-9,79.0,70.3,62.0,68.0,63.6,60.0,100,81,57,0.00,40.00,6,3,11,0.00
2013-6-10,80.0,71.1,67.0,78.0,70.1,67.0,100,97,79,0.00,40.00,8,4,13,0.93
2013-6-11,81.0,72.4,65.0,68.0,64.4,61.0,100,78,55,0.00,40.00,10,6,20,0.31
2013-6-12,90.0,78.3,67.0,69.0,65.6,63.0,97,68,43,0.00,40.00,8,4,17,0.01
2013-6-13,84.0,72.8,68.0,72.0,66.2,53.0,100,81,57,0.00,40.00,12,7,33,0.40
2013-6-14,80.0,70.1,62.0,55.0,52.4,50.0,68,55,37,0.00,40.00,11,8,24,0.03
2013-6-15,84.0,72.5,59.0,59.0,53.7,47.0,84,55,29,0.00,40.00,7,4,15,0.00
2013-6-16,82.0,71.8,62.0,67.0,60.8,56.0,93,70,54,0.00,40.00,8,4,17,0.00
2013-6-17,88.0,77.0,66.0,68.0,63.8,60.0,87,65,45,0.00,40.00,7,4,14,0.00
2013-6-18,77.0,72.2,67.0,71.0,68.1,64.0,100,87,67,0.00,40.00,7,2,10,0.01
2013-6-19,78.0,69.5,62.0,68.0,60.3,55.0,100,76,45,0.00,40.00,6,4,12,0.01
2013-6-20,80.0,66.7,58.0,67.0,61.5,58.0,100,86,54,0.00,40.00,8,4,20,0.00
2013-6-22,88.0,82.7,74.0,66.0,64.9,62.0,76,56,46,0.00,40.00,7,6,14,0.00
2013-6-23,88.0,76.8,63.0,72.0,66.9,62.0,100,74,49,0.00,40.00,7,3,12,0.00
2013-6-24,92.0,77.7,68.0,72.0,67.8,63.0,94,74,43,0.00,40.00,9,4,24,0.19
2013-6-25,94.0,80.2,67.0,72.0,67.6,59.0,96,69,40,0.00,40.00,7,4,34,0.19
2013-6-26,93.0,75.9,66.0,72.0,66.6,61.0,91,75,45,0.00,40.00,10,4,16,0.02
2013-6-27,83.0,74.9,68.0,74.0,69.0,66.0,100,83,65,0.00,40.00,8,4,18,0.33
2013-6-28,88.0,77.5,68.0,71.0,65.6,60.0,93,68,43,0.00,40.00,7,4,16,0.01
2013-6-29,87.0,76.8,68.0,69.0,62.2,59.0,100,64,39,0.00,40.00,7,4,14,0.25
2013-6-30,86.0,69.9,66.0,73.0,60.6,-99.9,100,82,63,0.00,40.00,8,3,19,0.25
2013-7-1,84.0,75.6,70.0,73.0,70.0,67.0,100,84,62,0.00,40.00,8,4,15,0.01
2013-7-2,84.0,76.9,71.0,73.0,70.6,68.0,98,82,64,0.00,40.00,13,6,24,0.02
2013-7-3,84.0,76.9,72.0,74.0,71.4,68.0,97,84,70,0.00,40.00,7,4,14,0.03
2013-7-4,89.0,80.1,69.0,74.0,70.7,69.0,100,75,56,0.00,40.00,10,6,19,0.01
2013-7-5,91.0,81.2,70.0,72.0,70.2,68.0,97,72,50,0.00,40.00,12,6,20,0.00
2013-7-6,92.0,80.9,71.0,72.0,70.2,67.0,94,72,46,0.00,40.00,8,4,16,0.00
2013-7-7,88.0,77.0,69.0,71.0,68.8,63.0,99,78,52,0.00,40.00,11,4,27,0.58
2013-7-8,88.0,74.4,66.0,70.0,65.2,-99.9,100,80,47,0.00,40.00,8,4,16,0.08
2013-7-9,87.0,76.7,71.0,73.0,68.6,66.0,90,77,53,0.00,40.00,9,4,17,0.11
2013-7-10,86.0,77.4,73.0,73.0,66.1,-99.9,86,73,63,0.00,40.00,9,5,26,0.37
2013-7-11,85.0,77.2,70.0,68.0,65.9,62.0,92,69,54,0.00,40.00,6,4,14,0.33
2013-7-12,76.0,70.7,65.0,68.0,64.9,60.0,97,83,65,0.00,40.00,7,4,13,0.39
2013-7-13,84.0,75.3,68.0,71.0,68.3,65.0,98,80,59,0.00,40.00,6,4,11,0.03
2013-7-14,89.0,79.6,69.0,74.0,70.7,68.0,100,77,51,0.00,40.00,8,4,15,0.01
2013-7-15,96.0,81.2,68.0,73.0,70.4,67.0,99,73,44,0.00,40.00,6,3,14,0.00
2013-7-16,94.0,88.4,78.0,74.0,68.8,65.0,79,54,40,0.00,40.00,6,4,14,0.01
2013-7-17,96.0,84.3,73.0,75.0,71.3,67.0,93,67,43,0.00,40.00,7,4,15,0.00
2013-7-18,98.0,89.0,78.0,76.0,73.4,70.0,91,62,44,0.00,40.00,5,3,11,0.00
2013-7-19,97.0,85.0,76.0,75.0,72.2,65.0,93,68,42,0.00,40.00,7,4,21,0.00
2013-7-20,93.0,80.8,71.0,72.0,66.5,-99.9,88,65,41,0.00,40.00,7,4,19,0.00
2013-7-21,87.0,77.8,72.0,73.0,69.2,67.0,96,76,54,0.00,40.00,6,3,19,0.10
2013-7-22,86.0,75.2,70.0,74.0,71.1,69.0,100,89,57,0.00,40.00,6,3,13,0.72
2013-7-23,88.0,77.7,71.0,72.0,69.2,64.0,100,78,49,0.00,40.00,11,4,21,0.78
2013-7-24,82.0,74.8,66.0,67.0,61.6,53.0,97,66,44,0.00,40.00,9,5,17,0.01
2013-7-25,79.0,68.5,58.0,58.0,53.1,50.0,80,60,39,0.00,40.00,7,5,16,0.00
2013-7-26,85.0,70.9,55.0,61.0,57.1,54.0,98,66,37,0.00,40.00,5,3,11,0.00
2013-7-27,82.0,70.8,60.0,73.0,65.3,59.0,96,84,63,0.00,40.00,9,3,18,0.03
2013-7-28,85.0,74.0,66.0,70.0,66.3,62.0,100,80,49,0.00,40.00,8,3,15,0.23
2013-7-29,81.0,70.1,57.0,65.0,56.0,52.0,97,65,40,0.00,40.00,8,4,13,0.23
2013-7-30,83.0,72.4,57.0,62.0,57.0,54.0,93,61,40,0.00,40.00,6,3,16,0.00
2013-7-31,80.0,69.6,63.0,68.0,63.7,61.0,96,82,64,0.00,40.00,7,3,18,0.00
2013-8-1,86.0,73.6,67.0,70.0,66.4,64.0,99,81,52,0.00,40.00,6,4,17,0.14
2013-8-2,87.0,75.5,63.0,66.0,60.9,54.0,95,65,34,0.00,40.00,10,5,20,0.07
2013-8-3,73.0,70.0,65.0,68.0,63.1,58.0,98,80,62,0.00,40.00,7,4,16,0.15
2013-8-4,81.0,70.3,58.0,65.0,56.3,49.0,100,66,36,0.00,40.00,11,5,21,0.02
2013-8-5,81.0,68.7,55.0,58.0,53.5,50.0,90,61,34,0.00,40.00,4,2,10,0.01
2013-8-6,81.0,68.6,61.0,69.0,63.2,58.0,99,84,65,0.00,40.00,6,3,11,0.93
2013-8-7,85.0,73.4,66.0,73.0,68.9,65.0,98,87,66,0.00,40.00,7,4,14,0.33
2013-8-8,82.0,74.5,68.0,75.0,71.5,68.0,100,91,68,0.00,40.00,8,3,15,0.45
2013-8-9,86.0,77.6,73.0,79.0,73.0,69.0,100,87,64,0.00,40.00,8,5,16,0.32
2013-8-10,84.0,75.9,69.0,70.0,65.1,60.0,93,72,45,0.00,40.00,5,3,9,0.11
2013-8-11,85.0,75.4,67.0,69.0,66.9,65.0,98,77,52,0.00,40.00,6,3,11,0.00
2013-8-12,89.0,76.5,66.0,72.0,67.3,62.0,99,76,44,0.00,40.00,6,2,12,0.00
2013-8-13,87.0,75.0,68.0,70.0,65.5,-99.9,97,75,53,0.00,40.00,8,4,16,0.41
2013-8-14,74.0,65.1,57.0,58.0,47.4,-99.9,78,55,42,0.00,40.00,11,7,23,0.02
2013-8-15,76.0,60.4,50.0,55.0,44.3,-99.9,97,66,37,0.00,40.00,5,2,10,0.00
2013-8-16,79.0,64.3,51.0,57.0,49.7,-99.9,97,67,39,0.00,40.00,5,2,11,0.00
2013-8-17,79.0,67.2,54.0,60.0,56.4,53.0,98,71,45,0.00,40.00,6,3,12,0.00
2013-8-18,71.0,64.7,62.0,64.0,58.7,-99.9,97,84,63,0.00,40.00,6,3,11,0.19
2013-8-19,79.0,64.7,59.0,69.0,58.6,-99.9,100,90,69,0.00,40.00,3,2,7,0.12
2013-8-20,87.0,72.4,62.0,73.0,64.3,59.0,100,80,42,0.00,40.00,5,2,11,0.01
2013-8-21,89.0,74.5,62.0,72.0,66.9,61.0,99,79,56,0.00,40.00,8,3,13,0.01
2013-8-22,88.0,76.9,68.0,69.0,65.8,62.0,94,71,50,0.00,40.00,6,4,15,0.01
2013-8-23,76.0,69.3,64.0,69.0,65.8,62.0,100,89,62,0.00,40.00,5,3,9,0.66
2013-8-24,83.0,69.1,59.0,66.0,59.9,55.0,100,76,39,0.00,40.00,5,3,10,0.01
2013-8-25,82.0,68.4,55.0,64.0,57.4,-99.9,99,73,45,0.00,40.00,6,3,11,0.01
2013-8-26,88.0,74.5,60.0,64.0,61.6,58.0,93,68,43,0.00,40.00,6,4,14,0.00
2013-8-27,89.0,80.0,73.0,71.0,66.6,62.0,75,64,54,0.00,40.00,8,5,17,0.00
2013-8-28,75.0,73.8,72.0,74.0,72.4,70.0,99,95,92,0.00,40.00,6,3,10,0.34
2013-8-29,85.0,76.3,71.0,73.0,69.4,65.0,99,81,53,0.00,40.00,5,4,10,0.01
2013-8-30,88.0,76.1,65.0,72.0,67.8,65.0,100,78,49,0.00,40.00,9,4,16,0.01
2013-8-31,89.0,78.5,72.0,73.0,70.3,67.0,96,78,49,0.00,40.00,6,4,15,0.41
2013-9-1,90.0,75.6,66.0,71.0,66.8,-99.9,100,78,51,0.00,40.00,9,3,19,0.64
2013-9-2,91.0,78.8,69.0,72.0,68.8,66.0,100,75,46,0.00,40.00,7,3,14,0.64
2013-9-3,83.0,74.8,66.0,67.0,60.3,52.0,91,63,38,0.00,40.00,11,6,19,0.00
2013-9-4,84.0,69.9,55.0,60.0,53.5,49.0,92,60,30,0.00,40.00,7,4,12,0.00
2013-9-5,82.0,71.1,62.0,61.0,55.1,47.0,77,58,41,0.00,40.00,10,5,18,0.00
2013-9-6,76.0,64.0,54.0,49.0,47.3,46.0,84,57,36,0.00,40.00,6,4,11,0.00
2013-9-7,84.0,65.6,49.0,56.0,50.8,43.0,95,64,24,0.00,40.00,6,2,13,0.00
2013-9-8,86.0,72.7,62.0,66.0,59.1,-99.9,81,65,49,0.00,40.00,7,3,16,0.00
2013-9-9,77.0,67.5,59.0,63.0,55.7,49.0,93,67,52,0.00,40.00,6,4,12,0.00
2013-9-10,94.0,79.4,64.0,71.0,67.6,62.0,97,71,46,0.00,40.00,7,4,15,0.00
2013-9-11,92.0,80.9,70.0,75.0,71.3,68.0,95,75,49,0.00,40.00,8,3,39,0.18
2013-9-12,93.0,78.5,70.0,72.0,67.4,60.0,99,72,39,0.00,40.00,12,4,24,0.18
2013-9-13,77.0,68.0,59.0,65.0,54.2,46.0,85,63,40,0.00,40.00,12,7,24,0.00
2013-9-14,69.0,58.0,48.0,48.0,43.5,41.0,84,60,39,0.00,40.00,10,5,21,0.00
2013-9-15,78.0,57.7,43.0,56.0,46.5,-99.9,96,72,39,0.00,40.00,6,3,12,0.00
2013-9-16,73.0,63.1,55.0,59.0,55.7,51.0,97,79,48,0.00,40.00,9,4,16,0.16
2013-9-17,69.0,57.5,47.0,52.0,43.5,38.0,91,63,36,0.00,40.00,7,4,12,0.01
2013-9-18,52.0,43.2,39.0,48.0,41.2,38.0,97,93,85,0.00,40.00,2,1,5,0.00
2013-9-19,77.0,61.5,47.0,57.0,52.1,46.0,97,74,48,0.00,40.00,5,2,10,0.00
2013-9-20,81.0,66.6,51.0,63.0,58.1,51.0,100,77,50,0.00,40.00,8,3,14,0.00
2013-9-21,70.0,64.9,61.0,65.0,62.0,60.0,100,90,78,0.00,40.00,10,5,22,0.64
2013-9-22,72.0,61.9,55.0,58.0,50.3,-99.9,100,70,45,0.00,40.00,10,5,19,0.59
2013-9-23,66.0,56.8,48.0,48.0,43.7,41.0,88,63,44,0.00,40.00,8,4,16,0.00
2013-9-24,73.0,55.1,38.0,50.0,44.9,37.0,98,73,37,0.00,40.00,5,2,10,0.00
2013-9-25,76.0,57.5,42.0,53.0,45.9,41.0,99,71,34,0.00,40.00,4,2,9,0.00
2013-9-26,77.0,59.4,45.0,51.0,47.7,44.0,98,71,31,0.00,40.00,6,2,12,0.00
2013-9-27,74.0,59.0,48.0,56.0,51.9,47.0,96,80,51,0.00,40.00,5,2,9,0.00
2013-9-28,68.0,58.5,50.0,57.0,52.3,49.0,100,83,52,0.00,40.00,4,2,9,0.00
2013-9-29,74.0,56.8,46.0,56.0,47.8,-99.9,100,78,42,0.00,40.00,5,2,10,0.00
2013-9-30,78.0,60.9,46.0,55.0,50.1,45.0,97,72,37,0.00,40.00,4,2,9,0.00
2013-10-1,70.0,66.4,59.0,57.0,55.5,53.0,80,69,59,0.00,40.00,4,3,6,0.00
2013-10-2,86.0,71.3,58.0,61.0,57.2,54.0,88,64,38,0.00,40.00,8,5,15,0.00
2013-10-3,85.0,69.6,56.0,64.0,59.8,55.0,98,74,45,0.00,40.00,5,2,10,0.00
2013-10-4,88.0,72.0,59.0,67.0,61.6,58.0,99,74,40,0.00,40.00,6,3,12,0.00
2013-10-5,87.0,74.9,62.0,66.0,62.2,59.0,96,68,39,0.00,40.00,7,3,16,0.00
2013-10-6,89.0,75.0,60.0,66.0,61.7,59.0,99,67,38,0.00,40.00,12,5,23,0.00
2013-10-7,74.0,65.3,55.0,67.0,56.6,42.0,95,75,49,0.00,40.00,11,6,24,0.51
2013-10-8,67.0,58.0,46.0,48.0,43.2,40.0,87,60,38,0.00,40.00,8,4,17,0.04
2013-10-9,62.0,54.5,48.0,46.0,44.1,38.0,90,70,41,0.00,40.00,6,4,11,0.00
2013-10-10,55.0,53.6,52.0,54.0,50.0,44.0,99,88,67,0.00,40.00,9,6,15,2.40
2013-10-11,60.0,56.8,54.0,60.0,56.2,53.0,100,98,96,0.00,40.00,8,6,15,2.40
2013-10-12,67.0,61.6,59.0,61.0,58.5,54.0,100,90,69,0.00,40.00,7,5,12,0.88
2013-10-13,59.0,56.8,56.0,58.0,55.3,-99.9,100,98,92,0.00,40.00,6,4,12,0.67
2013-10-14,68.0,59.1,54.0,57.0,54.9,53.0,100,87,63,0.00,40.00,4,2,9,0.02
2013-10-15,71.0,58.8,50.0,60.0,53.3,50.0,100,84,51,0.00,40.00,3,2,8,0.00
2013-10-16,70.0,59.3,49.0,60.0,54.5,48.0,98,86,65,0.00,40.00,6,3,10,0.00
2013-10-17,73.0,64.1,58.0,65.0,59.7,49.0,99,86,65,0.00,40.00,11,4,22,0.07
2013-10-18,67.0,57.9,46.0,49.0,41.2,38.0,87,55,36,0.00,40.00,11,6,25,0.06
2013-10-19,63.0,50.9,40.0,53.0,45.2,39.0,98,82,61,0.00,40.00,10,4,25,0.02
2013-10-20,63.0,51.5,42.0,39.0,33.7,-99.9,82,54,32,0.00,40.00,11,5,25,0.02
2013-10-21,69.0,51.2,34.0,44.0,38.3,33.0,97,66,34,0.00,40.00,10,4,18,0.00
2013-10-22,62.0,52.3,41.0,49.0,40.7,30.0,88,66,35,0.00,40.00,9,4,19,0.00
2013-10-23,50.0,42.5,34.0,38.0,34.7,32.0,95,75,53,0.00,40.00,9,4,17,0.00
2013-10-24,51.0,42.0,38.0,36.0,31.0,26.0,87,66,43,0.00,40.00,10,6,21,0.02
2013-10-25,53.0,42.3,33.0,32.0,28.5,25.0,83,60,40,0.00,40.00,12,6,23,0.01
2013-10-26,56.0,43.3,29.0,30.0,26.0,24.0,84,54,29,0.00,40.00,12,7,22,0.00
2013-10-27,61.0,49.3,38.0,36.0,29.3,-99.9,74,49,31,0.00,40.00,10,4,25,0.00
2013-10-28,61.0,43.6,30.0,38.0,32.1,-99.9,95,70,38,0.00,40.00,4,2,8,0.00
2013-10-29,64.0,46.9,33.0,40.0,37.0,32.0,95,72,40,0.00,40.00,4,2,7,0.00
2013-10-30,69.0,55.2,45.0,53.0,47.8,40.0,99,78,54,0.00,40.00,3,2,5,0.05
2013-10-31,68.0,60.5,54.0,60.0,56.1,52.0,100,86,70,0.00,40.00,11,4,20,0.04
2013-11-1,76.0,64.5,49.0,61.0,51.7,42.0,90,67,33,0.00,40.00,12,6,26,0.27
2013-11-2,65.0,53.5,45.0,46.0,41.4,36.0,92,66,39,0.00,40.00,12,5,26,0.01
2013-11-3,56.0,48.0,39.0,38.0,28.0,-99.9,73,49,23,0.00,40.00,12,8,21,0.00
2013-11-4,45.0,37.1,30.0,27.0,20.9,18.0,75,53,37,0.00,40.00,7,3,13,0.00
2013-11-5,53.0,42.4,30.0,42.0,33.3,26.0,88,72,47,0.00,40.00,5,2,9,0.00
2013-11-6,70.0,57.2,47.0,50.0,46.9,42.0,87,70,47,0.00,40.00,12,7,20,0.00
2013-11-7,59.0,53.3,42.0,53.0,41.9,20.0,95,67,41,0.00,40.00,15,8,30,0.24
2013-11-8,49.0,42.8,33.0,27.0,23.0,20.0,67,46,34,0.00,40.00,14,8,30,0.01
2013-11-9,56.0,40.4,27.0,30.0,24.4,-99.9,89,58,33,0.00,40.00,11,5,17,0.00
2013-11-10,60.0,48.5,42.0,31.0,26.3,23.0,55,43,31,0.00,40.00,16,9,31,0.00
2013-11-11,58.0,46.6,35.0,31.0,27.1,24.0,69,48,30,0.00,40.00,9,5,19,0.00
2013-11-12,52.0,38.9,32.0,33.0,20.3,11.0,73,48,33,0.00,40.00,15,9,28,0.00
2013-11-13,44.0,34.8,29.0,20.0,16.5,13.0,58,48,30,0.00,40.00,10,7,21,0.00
2013-11-14,59.0,40.0,26.0,20.0,13.5,7.0,62,37,14,0.00,40.00,9,4,16,0.00
2013-11-15,62.0,41.8,25.0,30.0,22.8,17.0,79,52,17,0.00,40.00,6,2,11,0.00
2013-11-16,60.0,48.4,38.0,50.0,41.8,-99.9,98,81,53,0.00,40.00,9,4,13,0.01
2013-11-17,62.0,56.9,50.0,57.0,53.5,49.0,100,89,74,0.00,40.00,16,7,23,0.01
2013-11-18,65.0,58.9,48.0,58.0,32.5,23.0,88,40,21,0.00,40.00,16,11,32,0.09
2013-11-19,48.0,41.6,33.0,25.0,22.9,21.0,63,48,37,0.00,40.00,13,8,25,0.00
2013-11-20,47.0,35.1,26.0,24.0,19.4,15.0,83,55,28,0.00,40.00,6,3,11,0.00
2013-11-21,48.0,35.4,25.0,36.0,28.5,19.0,88,77,57,0.00,40.00,5,2,11,0.00
2013-11-22,58.0,48.2,39.0,49.0,41.6,35.0,88,78,65,0.00,40.00,10,2,23,0.00
2013-11-23,53.0,40.8,29.0,43.0,22.8,-99.9,72,51,34,0.00,40.00,14,10,30,0.00
2013-11-24,31.0,25.5,22.0,7.0,3.5,-1.0,45,38,33,0.00,40.00,15,11,33,0.00
2013-11-25,38.0,27.4,17.0,10.0,5.6,3.0,59,41,23,0.00,40.00,9,6,15,0.00
2013-11-26,35.0,33.5,32.0,34.0,25.4,10.0,100,76,36,0.00,40.00,7,4,13,1.35
2013-11-27,39.0,35.1,27.0,36.0,28.3,12.0,100,77,51,0.00,40.00,14,8,29,1.03
2013-11-28,37.0,30.4,25.0,19.0,13.7,9.0,64,50,38,0.00,40.00,13,6,24,0.01
2013-11-29,40.0,31.2,24.0,24.0,19.7,16.0,84,64,42,0.00,40.00,9,3,16,0.00
2013-11-30,35.0,26.4,18.0,21.0,17.0,-99.9,90,71,52,0.00,40.00,7,3,11,0.00
2013-12-1,38.0,28.9,19.0,26.0,21.7,16.0,89,75,61,0.00,40.00,3,2,4,0.00
2013-12-2,44.0,38.5,35.0,31.0,29.0,26.0,77,68,56,0.00,40.00,4,2,7,0.00
2013-12-3,56.0,40.8,33.0,37.0,32.8,29.0,89,75,48,0.00,40.00,4,2,6,0.00
2013-12-4,55.0,43.0,31.0,45.0,37.9,30.0,100,83,57,0.00,40.00,4,2,7,0.00
2013-12-5,67.0,52.1,38.0,57.0,49.1,38.0,100,91,61,0.00,40.00,9,3,16,0.01
2013-12-6,58.0,44.4,36.0,58.0,43.5,36.0,100,97,90,0.00,40.00,9,6,18,2.27
2013-12-7,39.0,34.6,29.0,36.0,26.0,-99.9,99,74,58,0.00,40.00,10,6,19,1.10
2013-12-8,29.0,25.6,24.0,27.0,20.9,15.0,100,83,63,0.00,40.00,5,3,13,0.00
2013-12-9,38.0,31.5,27.0,36.0,30.9,27.0,100,98,87,0.00,40.00,5,2,8,0.36
2013-12-10,40.0,34.2,29.0,36.0,24.6,11.0,100,70,46,0.00,40.00,12,6,26,0.22
2013-12-11,39.0,28.5,20.0,21.0,13.1,10.0,76,53,34,0.00,40.00,7,4,19,0.12
2013-12-12,35.0,27.2,20.0,21.0,7.2,0.0,75,44,25,0.00,40.00,10,6,21,0.05
2013-12-13,46.0,30.9,21.0,19.0,10.0,2.0,66,42,29,0.00,40.00,12,6,24,0.08
2013-12-14,35.0,30.9,28.0,33.0,27.0,-99.9,100,89,64,0.00,40.00,5,3,9,0.23
2013-12-15,43.0,34.3,29.0,34.0,27.1,19.0,100,77,56,0.00,40.00,14,7,26,0.30
2013-12-16,35.0,30.8,28.0,24.0,21.1,17.0,81,67,60,0.00,40.00,11,5,20,0.02
2013-12-17,40.0,31.8,28.0,32.0,27.8,23.0,93,85,73,0.00,40.00,5,3,9,0.00
2013-12-18,39.0,33.0,27.0,26.0,19.6,16.0,95,59,46,0.00,40.00,11,6,24,0.00
2013-12-19,57.0,36.3,20.0,30.0,23.4,16.0,90,63,35,0.00,40.00,8,3,12,0.00
2013-12-20,56.0,46.2,34.0,34.0,30.1,27.0,84,55,39,0.00,40.00,11,4,16,0.00
2013-12-21,67.0,57.4,50.0,56.0,42.4,-99.9,80,59,48,0.00,40.00,10,6,13,0.00
2013-12-22,67.0,63.2,61.0,63.0,58.5,55.0,100,85,71,0.00,40.00,14,8,21,0.11
2013-12-23,61.0,50.7,35.0,59.0,45.0,23.0,100,82,58,0.00,40.00,12,6,25,0.40
2013-12-24,38.0,30.7,21.0,23.0,15.3,3.0,68,53,38,0.00,40.00,13,7,29,0.05
2013-12-25,31.0,24.1,17.0,11.0,8.0,5.0,67,50,40,0.00,40.00,8,4,15,0.00
2013-12-26,45.0,32.5,22.0,23.0,15.8,10.0,70,51,35,0.00,40.00,12,4,25,0.00
2013-12-27,53.0,37.3,23.0,20.0,15.6,11.0,72,44,19,0.00,40.00,8,5,23,0.00
2013-12-28,60.0,41.8,28.0,26.0,20.3,-99.9,66,45,24,0.00,40.00,9,5,15,0.00
2013-12-29,48.0,43.7,40.0,45.0,37.7,23.0,100,82,40,0.00,40.00,11,4,17,1.13
2013-12-30,46.0,38.6,26.0,39.0,28.0,18.0,79,66,58,0.00,40.00,11,7,23,0.01
2013-12-31,40.0,30.7,24.0,27.0,18.1,13.0,88,61,38,0.00,40.00,16,6,31,0.00
2014-1-1,49.0,33.1,24.0,24.0,19.9,15.0,75,60,34,0.00,40.00,9,5,14,0.00
2014-1-2,32.0,29.3,26.0,30.0,25.4,22.0,100,86,75,0.00,40.00,7,4,12,0.00